GW4318 Weather Reports


Display with metric or nautical units.
time (UTC)temp
F
wind
direction
speed
MPH
gust
MPH
rain 1hr
in
rain 24hr
in
rain mn
in
humidity
%
barometer
mb
20260831002041 74 355 1.0 2.0 0.00 0.05 0.05 68 1016.3
20260831001021 74 189 1.0 3.0 0.00 0.05 0.05 67 1016.2
20260831000021 74 289 1.0 5.0 0.00 0.05 0.05 66 1016.1
20260830235017 75 357 1.0 6.0 0.00 0.05 0.05 66 1016.0
20260830234018 75 356 1.0 3.0 0.00 0.05 0.05 65 1015.9
20260830233021 75 327 1.0 4.0 0.00 0.05 0.05 64 1015.9
20260830232018 75 29 1.0 3.0 0.00 0.05 0.05 63 1015.9
20260830231038 75 89 1.0 4.0 0.00 0.05 0.05 62 1015.9
20260830230018 76 319 1.0 3.0 0.00 0.05 0.05 61 1016.0
20260830225018 76 262 1.0 4.0 0.00 0.05 0.05 60 1016.2
20260830224018 76 87 1.0 5.0 0.00 0.05 0.05 59 1016.1
20260830223058 76 33 1.0 3.0 0.00 0.05 0.05 58 1016.3
20260830222038 77 300 1.0 2.0 0.00 0.05 0.05 57 1016.4
20260830221018 77 301 1.0 4.0 0.00 0.05 0.05 57 1016.4
20260830220019 77 276 0.0 3.0 0.00 0.05 0.05 56 1016.3
20260830215039 77 186 1.0 3.0 0.00 0.05 0.05 56 1016.3
20260830214038 77 63 1.0 4.0 0.00 0.05 0.05 55 1016.3
20260830213019 77 319 1.0 4.0 0.00 0.05 0.05 56 1016.5
20260830212039 78 351 1.0 3.0 0.00 0.05 0.05 56 1016.6
20260830211019 78 308 1.0 5.0 0.00 0.05 0.05 57 1016.6
20260830210019 78 319 1.0 2.0 0.00 0.05 0.05 58 1016.5
20260830205017 78 224 1.0 4.0 0.00 0.05 0.05 58 1016.5
20260830204019 78 257 0.0 2.0 0.00 0.05 0.05 56 1016.5
20260830203020 78 9 1.0 4.0 0.00 0.05 0.05 55 1016.7
20260830202017 78 274 1.0 5.0 0.00 0.05 0.05 56 1016.8
20260830201037 78 290 1.0 3.0 0.00 0.05 0.05 57 1016.9
20260830200017 79 193 0.0 2.0 0.01 0.05 0.05 57 1017.0
20260830195017 78 189 0.0 3.0 0.04 0.05 0.05 57 1017.2
20260830194021 78 275 1.0 3.0 0.05 0.05 0.05 58 1017.3
20260830193017 77 221 1.0 3.0 0.05 0.05 0.05 58 1017.5
20260830192018 78 287 1.0 5.0 0.05 0.05 0.05 57 1017.6
20260830191018 78 185 1.0 4.0 0.05 0.05 0.05 56 1017.8
20260830190018 79 273 2.0 4.0 0.04 0.04 0.04 53 1017.9
20260830185018 79 200 1.0 4.0 0.00 0.00 0.00 53 1017.9
20260830184018 79 288 2.0 5.0 0.00 0.00 0.00 52 1017.9
20260830183018 79 163 1.0 3.0 0.00 0.00 0.00 51 1018.0
20260830182019 80 293 2.0 6.0 0.00 0.00 0.00 52 1018.0
20260830181018 80 292 1.0 4.0 0.00 0.00 0.00 52 1018.0
20260830180039 80 310 2.0 6.0 0.00 0.00 0.00 52 1018.0
20260830175016 80 259 2.0 9.0 0.00 0.00 0.00 51 1018.2
20260830174019 81 280 1.0 4.0 0.00 0.00 0.00 51 1018.4
20260830173019 81 262 2.0 8.0 0.00 0.00 0.00 50 1018.4
20260830172020 80 268 1.0 4.0 0.00 0.00 0.00 52 1018.5
20260830171019 80 314 2.0 6.0 0.00 0.00 0.00 50 1018.4
20260830170017 81 314 3.0 7.0 0.00 0.00 0.00 50 1018.5
20260830165017 81 331 2.0 5.0 0.00 0.00 0.00 51 1018.8
20260830164019 80 175 1.0 4.0 0.00 0.00 0.00 51 1018.8
20260830163020 80 278 2.0 7.0 0.00 0.00 0.00 51 1018.9
20260830162017 80 200 3.0 8.0 0.00 0.00 0.00 52 1018.9
20260830161019 80 194 1.0 6.0 0.00 0.00 0.00 53 1019.0
20260830160058 80 175 2.0 5.0 0.00 0.00 0.00 53 1019.2
20260830155038 80 227 2.0 6.0 0.00 0.00 0.00 53 1019.1
20260830154021 79 229 2.0 6.0 0.00 0.00 0.00 54 1019.3
20260830153018 79 306 2.0 6.0 0.00 0.00 0.00 53 1019.3
20260830152018 78 207 2.0 5.0 0.00 0.00 0.00 56 1019.5
20260830151017 77 220 1.0 4.0 0.00 0.00 0.00 58 1019.6
20260830150018 77 132 1.0 3.0 0.00 0.00 0.00 59 1019.7
20260830145018 76 335 1.0 6.0 0.00 0.00 0.00 58 1019.7
20260830144018 77 215 2.0 5.0 0.00 0.00 0.00 57 1019.7
20260830143018 76 294 2.0 8.0 0.00 0.00 0.00 57 1019.8
20260830142019 75 334 2.0 6.0 0.00 0.00 0.00 59 1019.9
20260830141039 75 79 2.0 6.0 0.00 0.00 0.00 59 1019.9
20260830140059 74 288 2.0 5.0 0.00 0.00 0.00 61 1020.0
20260830135016 73 248 1.0 6.0 0.00 0.00 0.00 62 1020.1
20260830134019 73 124 2.0 5.0 0.00 0.00 0.00 63 1020.0
20260830133019 72 344 2.0 6.0 0.00 0.00 0.00 64 1020.0
20260830132019 70 121 1.0 6.0 0.00 0.00 0.00 67 1020.1
20260830131017 69 137 1.0 2.0 0.00 0.00 0.00 70 1020.1
20260830130017 69 291 2.0 4.0 0.00 0.00 0.00 70 1020.1
20260830125017 68 264 1.0 3.0 0.00 0.00 0.00 72 1020.2
20260830124037 66 198 2.0 4.0 0.00 0.00 0.00 73 1020.2
20260830123017 65 290 2.0 3.0 0.00 0.00 0.00 77 1020.3
20260830122017 64 285 0.0 1.0 0.00 0.00 0.00 79 1020.5
20260830121031 62 288 1.0 3.0 0.00 0.00 0.00 81 1020.6
20260830120031 61 333 0.0 1.0 0.00 0.00 0.00 83 1020.5
20260830115018 60 178 0.0 1.0 0.00 0.00 0.00 86 1020.4
20260830114018 60 0.0 0.0 0.00 0.00 0.00 89 1020.5
20260830113018 59 280 0.0 1.0 0.00 0.00 0.00 89 1020.5
20260830112038 59 251 0.0 2.0 0.00 0.00 0.00 89 1020.5
20260830111018 58 146 0.0 1.0 0.00 0.00 0.00 89 1020.5
20260830110039 58 89 0.0 1.0 0.00 0.00 0.00 90 1020.6
20260830105018 58 174 0.0 1.0 0.00 0.00 0.00 89 1020.6
20260830104018 58 209 0.0 1.0 0.00 0.00 0.00 89 1020.4
20260830103018 58 242 1.0 2.0 0.00 0.00 0.00 89 1020.4
20260830102020 57 281 1.0 2.0 0.00 0.00 0.00 92 1020.6
20260830101040 57 194 0.0 2.0 0.00 0.00 0.00 92 1020.6
20260830100019 57 202 0.0 1.0 0.00 0.00 0.00 92 1020.6
20260830095019 57 141 0.0 1.0 0.00 0.00 0.00 92 1020.5
20260830094019 57 267 0.0 2.0 0.00 0.00 0.00 93 1020.5
20260830093020 57 271 0.0 1.0 0.00 0.00 0.00 92 1020.4
20260830092019 57 192 0.0 1.0 0.00 0.00 0.00 93 1020.5
20260830091019 57 201 0.0 1.0 0.00 0.00 0.00 93 1020.5
20260830090019 57 126 0.0 1.0 0.00 0.00 0.00 93 1020.8
20260830085020 57 242 1.0 2.0 0.00 0.00 0.00 94 1021.0
20260830084020 56 268 0.0 2.0 0.00 0.00 0.00 94 1021.0
20260830083020 56 171 0.0 2.0 0.00 0.00 0.00 95 1021.2
20260830082020 56 46 0.0 1.0 0.00 0.00 0.00 95 1021.3
20260830081020 56 212 0.0 1.0 0.00 0.00 0.00 95 1021.3
20260830080020 55 175 0.0 1.0 0.00 0.00 0.00 94 1021.2
20260830075020 55 21 0.0 1.0 0.00 0.00 0.00 94 1021.2
20260830074021 55 174 0.0 2.0 0.00 0.00 0.00 94 1021.2
20260830073021 56 234 0.0 1.0 0.00 0.00 0.00 94 1021.1
20260830072021 56 240 0.0 2.0 0.00 0.00 0.00 94 1021.1
20260830071021 56 232 0.0 1.0 0.00 0.00 0.00 93 1021.0
20260830070021 56 263 0.0 2.0 0.00 0.00 0.00 93 1020.9
20260830065021 56 71 0.0 1.0 0.00 0.00 0.00 93 1020.8
20260830064021 56 231 0.0 2.0 0.00 0.00 0.00 93 1020.8
20260830063021 56 218 0.0 1.0 0.00 0.00 0.00 93 1020.8
20260830062022 56 229 0.0 2.0 0.00 0.00 0.00 94 1021.0
20260830061022 55 238 0.0 2.0 0.00 0.00 0.00 94 1021.1
20260830060016 55 238 0.0 1.0 0.00 0.00 0.00 94 1021.1
20260830055017 55 237 0.0 1.0 0.00 0.00 0.00 94 1021.1
20260830054020 55 213 0.0 1.0 0.00 0.00 0.00 94 1021.2
20260830053020 55 265 0.0 1.0 0.00 0.00 0.00 94 1021.3
20260830052020 55 225 0.0 1.0 0.00 0.00 0.00 94 1021.4
20260830051017 55 310 0.0 1.0 0.00 0.00 0.00 94 1021.3
20260830050038 55 222 0.0 1.0 0.00 0.00 0.00 94 1021.2
20260830045038 55 101 0.0 1.0 0.00 0.00 0.00 94 1021.3
20260830044020 55 191 0.0 1.0 0.00 0.00 0.00 94 1021.2
20260830043018 55 106 0.0 1.0 0.00 0.00 0.00 93 1021.2
20260830042018 55 267 0.0 2.0 0.00 0.00 0.00 94 1021.2
20260830041018 55 123 0.0 1.0 0.00 0.00 0.00 94 1021.2
20260830040018 55 138 0.0 1.0 0.00 0.00 0.00 94 1021.2
20260830035018 55 48 0.0 1.0 0.00 0.00 0.00 93 1021.3
20260830034018 55 261 0.0 1.0 0.00 0.00 0.00 93 1021.3
20260830033018 55 123 0.0 1.0 0.00 0.00 0.00 92 1021.2
20260830032018 56 245 0.0 1.0 0.00 0.00 0.00 92 1021.2
20260830031019 56 241 0.0 1.0 0.00 0.00 0.00 92 1021.2
20260830030019 56 257 0.0 1.0 0.00 0.00 0.00 92 1021.3
20260830025019 56 201 0.0 1.0 0.00 0.00 0.00 92 1021.3
20260830024019 57 228 0.0 2.0 0.00 0.00 0.00 92 1021.3
20260830023019 57 196 0.0 1.0 0.00 0.00 0.00 92 1021.3
20260830022017 57 215 0.0 2.0 0.00 0.00 0.00 91 1021.4
20260830021016 57 203 0.0 1.0 0.00 0.00 0.00 90 1021.3
20260830020020 58 237 0.0 2.0 0.00 0.00 0.00 89 1021.3
20260830015019 58 249 0.0 1.0 0.00 0.00 0.00 88 1021.3
20260830014020 58 238 0.0 2.0 0.00 0.00 0.00 87 1021.1
20260830013039 59 177 0.0 1.0 0.00 0.00 0.00 86 1021.0
20260830012017 59 132 0.0 1.0 0.00 0.00 0.00 85 1020.9
20260830011017 59 120 0.0 1.0 0.00 0.00 0.00 85 1021.0
20260830010020 60 127 0.0 1.0 0.00 0.00 0.00 84 1021.0
20260830005018 60 163 0.0 1.0 0.00 0.00 0.00 83 1021.2
20260830004017 60 190 0.0 1.0 0.00 0.00 0.00 83 1021.2
20260830003017 61 197 0.0 2.0 0.00 0.00 0.00 82 1021.1